Location: ????????
(54.9045°N, 39.1041°E)
Time: 03:46:56
(UTC+00:00)

Daily predictions for brighter satellites

Satellite Brightness Start Highest point End
(mag) Time Altitude Azimuth Time Altitude Azimuth Time Altitude Azimuth
Cosmos 2221 3.1 00:03:42 32° WSW 00:04:52 40° WNW 00:08:54 10° N
COSMOS 2441 4.3 00:01:07 10° NNE 00:06:03 86° WNW 00:08:43 27° SSW
Cosmos 2333 Rocket 2.5 00:04:54 27° WSW 00:07:55 56° NW 00:13:29 10° NNE
Lacrosse 5 1.9 00:05:37 31° SW 00:08:04 73° SSE 00:13:10 10° ENE
ALOS 2.8 00:04:11 10° NNE 00:08:45 54° E 00:12:17 16° S
NOSS 3-1 (C) 4.3 00:02:13 10° NW 00:08:50 66° NNE 00:17:04 10° ESE
Cosmos 972 Rocket 4.0 00:07:57 28° SW 00:10:49 73° WNW 00:15:54 10° NNE
Cosmos 44 Rocket 3.4 00:10:18 29° SW 00:13:00 81° SE 00:18:11 10° NE
Cosmos 2360 Rocket 2.8 00:09:55 23° WSW 00:13:07 47° NW 00:18:34 10° NNE
Lacrosse 4 Rocket 3.4 00:15:03 11° WNW 00:17:55 20° NNW 00:20:57 10° NNE
Cosmos 2278 Rocket 2.1 00:13:22 10° NW 00:19:01 66° WSW 00:24:38 10° SSE
Cosmos 1743 4.1 00:16:55 10° NW 00:19:41 21° W 00:19:41 21° W
NOSS 3-4 (A) 3.3 00:16:26 25° SW 00:19:54 83° NW 00:26:16 10° NE
NOSS 3-4 (C) 3.3 00:16:29 25° SW 00:19:57 83° NW 00:26:20 10° NE
Sich 1 2.8 00:16:35 10° NNW 00:20:50 80° W 00:24:33 13° S
Cosmos 1733 3.1 00:18:26 10° N 00:22:04 77° ENE 00:25:40 10° SSE
IDEFIX/ARIANE 42P 3.1 00:17:59 10° N 00:22:55 45° WNW 00:25:43 23° WSW
Cosmos 2322 Rocket 3.2 00:19:32 18° W 00:23:12 36° NW 00:28:22 10° NNE
NOSS 2-3 (C) 4.4 00:19:10 10° NW 00:24:29 61° SW 00:31:45 10° SSE
EO 1 Delta rocket 4.4 00:20:06 10° NNE 00:24:51 56° E 00:29:23 10° S
BlueWalker 3 2.3 00:23:38 30° WSW 00:24:52 40° SSW 00:28:28 10° SE
SAR-Lupe-1 4.0 00:21:31 10° NNE 00:25:09 82° WNW 00:26:59 27° SSW
MSX 4.2 00:21:49 10° N 00:27:26 52° WNW 00:31:06 21° SW
Cosmos 1743 Rocket 3.4 00:24:07 10° NNW 00:28:27 71° W 00:32:27 12° S
NOSS 2-3 (D) 4.4 00:24:19 10° NW 00:29:37 60° SW 00:36:49 10° SSE
Cosmos 1538 Rocket 4.1 00:26:59 19° SSW 00:30:51 80° ESE 00:36:13 10° NNE
Cosmos 2219 Rocket 2.4 00:27:21 23° WSW 00:30:51 58° NW 00:36:25 10° NNE
ATLAS 3B R/B 3.7 00:23:51 10° NW 00:31:27 58° NNE 00:39:10 10° ESE
Cosmos 192 4.4 00:27:46 10° NW 00:32:34 55° WSW 00:37:20 10° S
Gbstr 26 Del rocket 3.7 00:31:34 23° SSW 00:33:20 34° SSE 00:36:49 10° E
Cosmos 1536 3.2 00:30:23 10° NNW 00:34:02 39° W 00:35:47 24° SW
Meteor 2-10 4.1 00:28:45 10° NNW 00:34:19 74° W 00:39:59 10° S
Cosmos 1420 Rocket 4.1 00:30:09 10° NNW 00:35:25 82° ENE 00:40:42 10° SSE
Cosmos 1633 Rocket 4.0 00:31:27 10° N 00:35:41 49° ENE 00:39:54 10° SSE
SAR-Lupe-4 3.7 00:32:45 10° N 00:36:17 59° WNW 00:38:09 25° SW
SWAS 4.3 00:32:26 10° NW 00:36:40 86° WSW 00:40:53 10° SSE
COBE Rocket 4.4 00:32:36 10° N 00:37:02 41° WNW 00:39:40 21° SW
NOSS 7 (E) 4.3 00:34:21 10° WNW 00:37:20 50° SW 00:40:39 10° SSE
NOSS 2-2 (E) 4.3 00:33:22 10° WNW 00:37:25 40° SW 00:42:56 10° SSE
Cosmos 1340 Rocket 4.4 00:34:01 10° SSE 00:37:28 32° E 00:40:58 10° NNE
Cosmos 2056 Rocket 3.8 00:33:30 10° NNW 00:38:54 77° ENE 00:44:19 10° SSE
Cosmos 1805 3.4 00:36:08 10° N 00:39:52 69° ENE 00:43:33 10° SSE
GP-B 3.2 00:35:38 10° N 00:39:59 58° W 00:43:17 17° SSW
SL-16 R/B 3.8 00:35:21 10° W 00:40:02 26° NNW 00:44:45 10° NNE
Meteor 1-28 Rocket 4.4 00:45:44 21° WSW 00:46:26 22° W 00:49:23 10° NW
Cosmos 1092 Rocket 4.0 00:42:21 10° S 00:48:30 85° E 00:54:42 10° NNE
ADEOS II 2.5 00:44:15 10° N 00:49:19 50° WNW 00:53:12 17° SW
CZ-2C R/B 3.4 00:45:30 10° NNE 00:50:32 50° E 00:55:34 10° S
FENGYUN 3A 3.9 00:46:00 10° N 00:51:19 55° WNW 00:55:38 15° SW
Cosmos 1624 Rocket 4.0 00:46:09 10° NNW 00:51:27 89° E 00:56:40 10° SSE
NOSS 2-2 (D) 4.2 00:47:46 10° WNW 00:51:45 40° SW 00:57:09 10° SSE
Meteor 1-19 Rocket 4.4 00:48:15 10° SSW 00:54:11 86° WNW 01:00:16 10° NNE
Cosmos 1726 3.2 00:51:48 10° NW 00:54:13 20° W 00:54:44 19° WSW
Cosmos 2026 Rocket 4.0 00:50:12 10° S 00:56:31 86° W 01:02:57 10° N
SL-16 R/B 3.2 00:51:35 12° SSW 00:56:43 34° W 01:02:20 10° NNW
Okean 1 3.4 00:54:37 17° SSW 00:57:21 53° WNW 01:01:06 10° N
CZ-2D R/B 3.1 00:55:44 10° N 01:00:26 33° WNW 01:04:21 14° WSW
ATLAS 5 CENTAUR R/B 2.0 00:56:54 10° NW 01:01:29 85° NE 01:07:12 10° SE
Cosmos 1461 3.7 00:59:31 10° WNW 01:02:39 24° WSW 01:05:45 10° S
Cosmos 923 Rocket 4.2 01:02:09 10° SSW 01:07:21 74° ESE 01:12:39 10° NNE
Envisat 3.1 01:02:16 10° NNE 01:07:24 82° ESE 01:12:29 10° SSW
Cosmos 1151 Rocket 3.0 01:04:13 10° SSW 01:08:30 72° WNW 01:12:52 10° N
RESURS DK-1 2.3 01:06:15 14° SW 01:09:40 79° NW 01:13:46 10° NE
Intercosmos 25 Rocket 3.2 01:15:30 10° NNW 01:18:40 55° W 01:22:41 10° S
Cosmos 1766 3.6 01:15:42 10° N 01:19:24 65° ENE 01:23:03 10° SSE
Cosmos 921 Rocket 4.0 01:15:27 10° S 01:19:31 46° ESE 01:23:42 10° NNE
Cosmos 1943 Rocket 2.5 01:14:22 10° NW 01:19:41 42° WSW 01:24:59 10° S
ATLAS 2AS CENTAUR R/B 4.0 01:13:07 10° S 01:19:51 39° ESE 01:26:21 10° NE
Cosmos 1371 Rocket 4.1 01:15:03 10° NNW 01:20:10 57° WSW 01:25:19 10° S
Meteor 1-27 Rocket 4.0 01:14:52 10° SSW 01:20:33 55° WNW 01:26:08 10° N
Cosmos 1470 Rocket 3.7 01:17:08 10° N 01:21:32 84° ENE 01:25:56 10° SSE
Cosmos 1975 2.9 01:19:10 10° NNW 01:22:55 50° W 01:26:39 10° S
Thor Agena Rocket 3.6 01:18:14 10° NNE 01:23:19 80° ESE 01:28:22 10° SSW
NOAA 11 4.2 01:19:44 10° NNE 01:25:13 88° WNW 01:30:41 10° SSW
Meteor 2-4 Rocket 3.7 01:21:00 10° S 01:26:26 85° ESE 01:32:02 10° NNE
H-2A R/B 3.6 01:22:15 10° NNE 01:26:50 36° E 01:31:29 10° SSE
COSMOS 2428 3.2 01:22:41 11° WSW 01:28:03 48° NW 01:33:35 10° NNE
Cosmos 1340 2.7 01:25:05 10° NNW 01:28:24 46° W 01:31:42 10° S
Cosmos 2297 3.8 01:22:47 10° NNW 01:28:35 86° ENE 01:34:21 10° SSE
CZ-4 R/B 4.0 01:23:53 10° N 01:28:38 60° WNW 01:33:16 10° SSW
CZ-2C R/B 4.2 01:30:30 10° N 01:34:36 26° WNW 01:38:52 10° WSW
Cosmos 1484 Rocket 4.2 01:31:15 10° NNE 01:34:39 36° E 01:37:59 10° SSE
Cosmos 1666 Rocket 4.0 01:30:46 10° NNW 01:35:00 43° W 01:39:13 10° SSW
S3M 4.1 01:29:35 10° N 01:35:46 88° E 01:41:59 10° S
Cosmos 2237 Rocket 2.3 01:30:08 10° SW 01:35:49 79° NW 01:41:34 10° NNE
NOSS 3-1 (A) 4.1 01:29:17 10° NW 01:36:09 88° NE 01:44:39 10° SE
Cosmos 1980 3.8 01:31:23 10° SW 01:37:03 75° NW 01:42:45 10° NNE
Cosmos 2369 Rocket 2.4 01:32:12 10° NNW 01:37:52 79° NE 01:43:28 10° SE
Cosmos 1626 2.0 01:36:08 10° S 01:39:26 76° E 01:42:45 10° NNE
BREEZE-M DEB (TANK) 1.8 01:38:07 10° WSW 01:40:19 39° SSE 01:42:18 10° E
Resurs 1-4 Rocket 3.8 01:37:34 10° N 01:41:06 18° NW 01:44:38 10° W
USA 215 3.5 01:37:24 10° E 01:43:57 76° N 01:50:29 10° W
ALOS 3.4 01:41:50 10° N 01:45:45 28° WNW 01:49:39 10° WSW
Cosmos 2112 Rocket 4.1 01:41:34 10° SSW 01:46:55 87° WNW 01:52:19 10° NNE
